Weather History for Agadir Al Massira, Morocco

Change the Weather History Date:

Wednesday, October 24, 2012

  Actual Average Record
Temperature  
Mean Temperature 78 °F -  
Max Temperature 89 °F - - ()
Min Temperature 66 °F - - ()
Cooling Degree Days 12    
Growing Degree Days 28 (Base 50)    
Moisture  
Dew Point 59 °F    
Average Humidity 59    
Maximum Humidity 88    
Minimum Humidity 23    
Precipitation  
Precipitation 0.00 in - - ()
Sea Level Pressure  
Sea Level Pressure 29.97 in    
Wind  
Wind Speed 3 mph ()    
Max Wind Speed 10 mph    
Max Gust Speed -    
Visibility 6.1 miles    
Events      
T = Trace of Precipitation, MM = Missing Value Source: Averaged Metar Reports

Daily Weather History Graph

Daily Weather History Graph

Search for Another Location

Airport:

Trip Planner

Search our weather history database for the weather conditions in past years. The results will help you decide how hot, cold, wet, or windy it might be!

Date:

Astronomy

Oct. 24, 2012 Rise Set
Actual Time 6:46 AM WET 5:56 PM WET
Civil Twilight 6:21 AM WET 6:21 PM WET
Nautical Twilight 5:53 AM WET 6:49 PM WET
Astronomical Twilight 5:25 AM WET 7:17 PM WET
Moon 2:47 PM WET (10/24) 1:48 AM WET (10/24)
Length of Visible Light 11h 59m
Length of Day
11h 10m
Waxing Gibbous, 74% of the Moon is Illuminated
Oct 24
Waxing Gibbous
Oct 29
Full
Nov 7
Last Quarter
Nov 13
New
Nov 20
First Quarter

Hourly Weather History & Observations

Time (WET) Temp. Heat Index Dew Point Humidity Pressure Visibility Wind Dir Wind Speed Gust Speed Precip Events Conditions
12:00 AM 74 °F - 62 °F 57% 30.00 in 6 mi ESE 3.5 mph - -   Partly Cloudy
12:00 AM 73.4 °F - 62.6 °F 69% 29.98 in 6.2 mi ESE 3.5 mph - N/A   Scattered Clouds
1:00 AM 73.4 °F - 55.4 °F 53% 29.98 in 6.2 mi SSE 2.3 mph - N/A   Scattered Clouds
2:00 AM 73.4 °F - 62.6 °F 69% 29.95 in 6.2 mi Calm Calm - N/A   Scattered Clouds
3:00 AM 71 °F - 63 °F 70% 29.97 in 6 mi Calm Calm - -   Partly Cloudy
3:00 AM 71.6 °F - 62.6 °F 73% 29.95 in 6.2 mi Calm Calm - N/A   Scattered Clouds
4:00 AM 69.8 °F - 62.6 °F 78% 29.95 in - North - - N/A   Clear
5:00 AM 68.0 °F - 62.6 °F 83% 29.95 in - ESE 2.3 mph - N/A   Clear
6:00 AM 67 °F - 62 °F 79% 29.97 in 6 mi ESE 2.3 mph - -   Scattered Clouds
6:00 AM 66.2 °F - 62.6 °F 88% 29.95 in - ESE 2.3 mph - N/A   Clear
7:00 AM 66.2 °F - 60.8 °F 83% 29.98 in - Calm Calm - N/A   Clear
8:00 AM 71.6 °F - 62.6 °F 73% 29.98 in - Calm Calm - N/A   Clear
9:00 AM 78 °F - 62 °F 49% 30.01 in 6 mi Calm Calm - -   Scattered Clouds
9:00 AM 78.8 °F - 62.6 °F 57% 30.01 in - Calm Calm - N/A   Clear
10:00 AM 80.6 °F 80.8 °F 57.2 °F 45% 30.01 in - SW 4.6 mph - N/A   Clear
11:00 AM 82.4 °F 81.7 °F 55.4 °F 39% 30.01 in - West 5.8 mph - N/A   Clear
12:00 PM 82 °F - 56 °F 30% 30.00 in 6 mi WSW 6.9 mph - -   Partly Cloudy
12:00 PM 82.4 °F 81.7 °F 55.4 °F 39% 30.01 in 6.2 mi WSW 6.9 mph - N/A   Scattered Clouds
1:00 PM 80.6 °F 80.3 °F 53.6 °F 39% 29.98 in 6.2 mi WSW 9.2 mph - N/A   Scattered Clouds
2:00 PM 80.6 °F - 48.2 °F 32% 29.98 in 6.2 mi WSW 10.4 mph - N/A   Mostly Cloudy
3:00 PM 81 °F - 49 °F 23% 29.96 in 6 mi WSW 6.9 mph - -   Partly Cloudy
3:00 PM - - - N/A% 0.00 in - North - - N/A   Mostly Cloudy
4:00 PM 80.6 °F - 51.8 °F 37% 29.95 in 6.2 mi West 5.8 mph - N/A   Mostly Cloudy
5:00 PM 78.8 °F - 55.4 °F 44% 29.95 in 6.2 mi WSW 4.6 mph - N/A   Mostly Cloudy
6:00 PM 78 °F - 54 °F 33% 29.94 in 6 mi SSW 2.3 mph - -   Partly Cloudy
6:00 PM 78.8 °F - 53.6 °F 42% 29.95 in 6.2 mi Variable 2.3 mph - N/A   Mostly Cloudy
7:00 PM 77.0 °F - 59.0 °F 54% 29.95 in 6.2 mi WSW 3.5 mph - N/A   Mostly Cloudy
8:00 PM 73.4 °F - 62.6 °F 69% 29.95 in 6.2 mi Calm Calm - N/A   Mostly Cloudy
9:00 PM 72 °F - 64 °F 68% 29.97 in 6 mi West 2.3 mph - -   Partly Cloudy
9:00 PM 71.6 °F - 64.4 °F 78% 29.95 in 6.2 mi Variable 2.3 mph - N/A   Mostly Cloudy
10:00 PM 69.8 °F - 62.6 °F 78% 29.95 in 6.2 mi Calm Calm - N/A   Unknown
11:00 PM 68.0 °F - 62.6 °F 83% 29.95 in 6.2 mi Calm Calm - N/A   Scattered Clouds